Location: Rounton
(54.4000°N, 1.3500°W)
Time: 06:22:52
(UTC+01:00)

deb Agena D - Pass Details

Date: 12 June 2023
Orbit: 996 x 1023 km, 100.1° (Epoch: 29 September)

Event Time Altitude Azimuth Distance (km) Brightness Sun altitude
Exits shadow 01:47:14 16° 189° (S) 2,377 ? -11.9°
Maximum altitude 01:52:07 49° 259° (W) 1,279 ? -11.8°
Drops below altitude 10° 01:58:09 10° 334° (NNW) 2,779 ? -11.6°
Sets 02:00:44 0° 340° (NNW) 3,731 ? -11.6°
